Flag for Belgium Weather past 2 weeks in Antwerp, Belgium

54 °F

Broken clouds.

Feels Like: 48 °F
Forecast: 45 / 55 °F
Wind: 20 mph from Southwest

Location: Antwerp / Deurne

Current Time: Nov 29, 2015 at 2:20:51 PM

Latest Report: Nov 29, 2015 at 1:50 PM

Visibility: N/A

Pressure: 29.80 "Hg

Humidity: 77%

Dew point: 46 °F

Location of AntwerpLocation

Historic Weather in Antwerp — Graph


Antwerp temperature yesterday

Maximum temperature yesterday: 46 °F (at 1:20 PM)
Minimum temperature yesterday: 41 °F (at 12:20 AM)
Average temperature yesterday: 44 °F

Past Weeks' High & Low Weather Summary

High61 °F (Nov 15, 9:50 AM)93% (Nov 21, 12:20 PM)30.30 "Hg (Nov 21, 12:20 PM)
Low28 °F (Nov 23, 8:20 AM)58% (Nov 26, 2:20 PM)29.39 "Hg (Nov 21, 11:50 AM)
Average47 °F79%29.88 "Hg
* Reported Nov 14 12:20 PM — Nov 29 12:50 PM, Antwerp, Weather by CustomWeather, © 2015

Note: Actual official high and low records may vary slightly from our data, if they occured in-between our weather recording intervals... More about our weather records


Antwerp weather history for previous 24 hours

Time TempWeatherWind HumidityBarometerVisibility
12:50 PM
Sun, Nov 29
52 °FBroken clouds.16 mph82%29.80 "HgN/A
12:20 PM50 °FLight rain. Broken clouds.15 mph88%29.80 "Hg5 mi
11:50 AM52 °FLight rain. Broken clouds.14 mph77%29.83 "Hg5 mi
11:20 AM52 °FLight rain. Broken clouds.14 mph77%29.83 "Hg6 mi
10:20 AM52 °FScattered clouds.16 mph77%29.83 "HgN/A
9:50 AM52 °FScattered clouds.14 mph77%29.83 "HgN/A
9:20 AM52 °FScattered clouds.14 mph77%29.83 "HgN/A
8:50 AM50 °FScattered clouds.13 mph82%29.83 "HgN/A
7:50 AM50 °FPartly cloudy.13 mph82%29.80 "HgN/A
7:20 AM48 °FLight rain. Partly cloudy.14 mph82%29.80 "HgN/A
5:50 AM48 °FSprinkles. Partly cloudy.15 mph82%29.77 "HgN/A
5:20 AM48 °FSprinkles. Partly cloudy.14 mph82%29.80 "HgN/A
4:50 AM48 °FPassing clouds.13 mph82%29.80 "HgN/A
4:20 AM48 °FOvercast.15 mph82%29.77 "HgN/A
3:50 AM48 °FPartly cloudy.14 mph82%29.77 "HgN/A
3:20 AM48 °FSprinkles. Overcast.15 mph82%29.77 "HgN/A
2:50 AM46 °FSprinkles. Passing clouds.14 mph87%29.80 "HgN/A
2:20 AM46 °FRain. Passing clouds.20 mph82%29.77 "Hg5 mi
1:50 AM46 °FRain. Partly cloudy.17 mph82%29.77 "Hg6 mi
1:20 AM46 °FRain showers. Partly cloudy.17 mph82%29.77 "Hg4 mi
12:50 AM46 °FSprinkles. Mostly cloudy.20 mph82%29.77 "HgN/A
12:20 AM45 °FMostly cloudy.20 mph87%29.80 "HgN/A
11:50 PM
Sat, Nov 28
45 °FSprinkles. Mostly cloudy.23 mph81%29.80 "HgN/A
10:50 PM45 °FLight rain. Passing clouds.20 mph81%29.80 "Hg5 mi
10:20 PM45 °FLight rain. Passing clouds.22 mph81%29.80 "Hg5 mi
9:50 PM46 °FLight rain. Passing clouds.24 mph71%29.83 "HgN/A
9:20 PM46 °FPassing clouds.20 mph71%29.83 "HgN/A
8:50 PM45 °FLight rain. Passing clouds.20 mph76%29.86 "HgN/A
8:20 PM45 °FLight rain. Partly cloudy.16 mph76%29.86 "HgN/A
7:50 PM45 °FLight rain. Partly cloudy.17 mph81%29.89 "HgN/A
7:20 PM45 °FLight rain. Partly cloudy.16 mph81%29.89 "HgN/A
6:50 PM45 °FLight rain. Partly cloudy.14 mph81%29.92 "HgN/A
6:20 PM45 °FLight rain. Partly cloudy.13 mph81%29.92 "HgN/A
5:50 PM45 °FLight rain. Partly cloudy.14 mph81%29.92 "Hg5 mi
5:20 PM45 °FLight rain. Passing clouds.14 mph76%29.95 "HgN/A
4:50 PM45 °FClear.12 mph71%29.95 "Hg10 mi
4:20 PM45 °FSunny.10 mph71%29.95 "Hg10 mi
3:50 PM45 °FPassing clouds.9 mph66%29.95 "HgN/A
3:20 PM45 °FPassing clouds.12 mph66%29.98 "HgN/A
2:50 PM46 °FPassing clouds.14 mph62%29.98 "HgN/A
2:20 PM45 °FScattered clouds.16 mph66%29.98 "HgN/A
Weather by CustomWeather, © 2015

See weather overviewHow to use our weather pages